SCP
0 0 0 0 0 0 0 0 0 0 0 0 0 0 -0 -0 -0 -0 -0 0 0 0 0 0 0 0 0 0 0 0 0 0 0 0 0 0 0 0 0 -0 -0 -0 -0 0
0 0 0 0 0 0 0 0 0 0 0 0 0 0 0 -0 -0 -0 -0 -0 0 0 0 0 0 0 0 0 0 0 0 0 0 0 0 0 0 0 0 0 0 0 0 -0
0 0 0 0 0 0 0 0 0 0 0 0 0 0 0 0 0 -0 0 0 0 0 0 0 0 0 0 0 0 0 0 0 0 0 0 0 0 0 0 0 0 0 0 0
0 0 0 0 0 0 0 0 0 0 0 0 0 0 0 0 0 0 0 0 0 0 0 0 0 0 0 0 0 0 0 0 0 0 0 0 0 0 0 0 0 0 0 0
0 0 0 0 0 0 0 0 0 0 0 0 0 0 0 0 0 0 0 0 0 0 0 0 0 0 0 0 0 0 0 0 0 0 0 0 0 0 0 0 0 0 0 0
0 0 0 0 0 0 0 0 0 0 0 0 0 0 0 0 0 0 0 0 0 0 0 0 0 0 0 0 0 0 0 0 0 0 0 0 0 0 0 0 0 0 0 0
0 0 0 0 0 0 0 0 0 0 0 0 0 0 0 0 0 0 0 0 0 0 0 0 0 0 0 0 0 0 0 0 0 0 0 0 0 0 0 0 0 0 0 0
0 0 0 0 0 0 0 0 0 0 0 0 0 0 0 0 0 0 0 0 0 0 0 0 0 0 0 0 0 0 0 0 0 0 0 0 0 0 0 0 0 0 0 0
0 0 0 0 0 0 0 0 0 0 0 0 0 0 0 0 0 0 0 0 0 0 0 0 0 0 0 0 0 -0 0 0 0 0 0 0 0 0 0 0 0 0 0 0
0 0 0 0 0 0 0 0 0 0 0 0 0 0 0 0 0 0 0 0 0 0 0 0 -0 -0 0 0 0 0 0 0 0 0 0 0 0 0 0 0 0 0 0 0
0 0 0 0 0 0 0 0 0 0 0 0 0 0 0 0 0 0 0 0 0 0 0 0 0 -0 0 -0 0 0 0 0 0 0 0 0 0 0 0 0 0 0 0 0
0 0 0 0 0 0 0 0 0 0 0 0 0 0 0 0 0 0 0 0 0 -0 -0 0 0 0 -0 -0 0 0 0 0 0 0 0 0 0 0 0 0 0 0 0 0
0 0 0 0 0 0 0 0 0 0 0 0 0 0 0 0 0 0 -0 -0 -0 -0 -0 0 0 0 0 0 0 0 0 0 0 0 0 0 0 0 0 0 0 0 0 0
0 0 0 0 0 0 0 0 0 0 0 0 0 0 0 0 0 0 -0 -0 -0 -0 0 0 0 0 0 0 0 0 0 0 0 0 0 0 0 0 0 0 0 0 0 0
0 0 0 0 0 0 0 0 0 0 0 0 0 0 0 0 -0 -0 0 0 -0 -0 0 0 0 0 0 0 0 0 0 0 0 0 0 0 0 0 0 0 0 0 0 0
0 0 0 0 0 0 0 0 0 0 0 0 0 0 0 0 0 0 0 0 -0 -0 -0 -0 0 0 0 0 0 0 0 0 0 0 0 0 0 0 0 0 0 0 0 0
0 0 0 0 0 0 0 0 0 0 0 0 -0 -0 -0 -0 -0 -0 -0 0 0 -0 -0 0 0 -0 0 0 0 0 0 0 0 0 0 0 0 0 0 0 0 0 0 0
0 0 0 0 0 0 0 0 0 0 0 0 -0 -0 -0 -0 0 0 0 0 0 0 0 0 0 0 0 0 0 0 0 0 0 0 0 0 0 0 0 0 0 0 0 0
0 0 0 0 0 0 0 0 0 0 0 0 0 0 0 0 0 0 0 0 0 0 0 0 0 0 0 0 0 0 0 0 0 0 0 0 0 0 0 0 0 0 0 0
0 0 0 0 0 0 0 0 0 0 0 0 0 0 0 0 0 0 0 0 0 0 0 0 0 0 0 0 0 0 0 0 0 0 0 0 0 0 0 0 0 0 0 0
0 0 0 0 0 0 0 0 0 0 0 0 0 0 0 0 0 0 0 0 0 0 0 0 0 0 0 0 0 0 0 0 0 0 0 0 0 0 0 0 0 0 0 0
0 0 0 0 0 0 0 0 0 0 0 0 0 0 0 0 0 0 0 0 0 0 0 0 0 0 0 0 0 0 0 0 0 0 0 0 0 0 0 0 0 0 0 0
0 0 0 0 0 0 0 0 0 0 0 0 0 0 0 0 0 0 0 -0 0 0 0 0 0 0 0 0 0 0 0 0 0 0 0 0 0 0 0 0 0 0 0 0
0 0 0 0 0 0 0 0 0 0 0 0 0 0 0 0 0 0 0 0 0 0 0 0 0 0 0 0 0 0 0 0 0 0 0 0 0 0 0 0 0 0 0 0
0 0 0 0 0 0 0 0 0 0 0 0 0 0 0 0 0 0 0 0 0 0 0 0 0 0 0 0 0 0 0 0 0 0 0 0 0 0 0 0 0 0 0 0
0 0 0 0 0 0 0 0 0 0 0 0 0 0 0 0 0 0 0 0 0 0 0 0 0 0 0 0 0 0 0 0 0 0 0 0 0 0 0 0 0 0 0 0
0 0 0 0 0 0 0 0 0 0 0 0 0 0 0 0 0 0 0 0 0 0 0 0 0 0 0 0 0 0 0 0 0 0 0 0 0 0 0 0 0 0 0 0
Wind_Speed_500mb
5 7 4 7 8 20 22 27 18 9 19 16 10 13 11 13 15 16 17 17 16 16 15 23 35 42 42 41 35 32 32 27 25 28 28 26 22 16 13 14 18 21 20 20
3 3 6 2 6 13 10 8 13 10 15 23 37 19 22 23 21 19 22 23 20 17 16 17 23 33 42 42 38 36 34 30 26 30 29 26 22 17 15 17 17 22 23 28
7 4 1 12 18 20 12 12 16 21 25 14 13 6 13 12 13 17 23 27 23 19 17 18 22 26 37 41 41 40 37 33 29 30 30 26 22 18 20 19 21 26 31 24
6 5 14 3 7 14 25 14 26 16 8 14 16 2 13 12 13 18 26 34 35 27 19 19 19 24 29 40 43 43 41 35 33 31 31 25 20 19 21 23 29 32 27 23
7 15 13 9 9 12 14 6 25 25 18 9 13 30 18 15 16 20 28 34 37 40 32 26 17 12 24 34 41 46 44 39 32 34 33 29 24 26 26 26 31 28 26 23
8 12 16 6 11 9 8 9 20 21 12 24 36 13 9 11 20 24 29 35 40 40 40 31 24 12 11 21 35 46 46 40 33 34 35 32 28 34 32 30 30 28 28 26
15 12 7 10 17 19 13 3 33 25 19 32 9 15 16 15 21 25 30 34 38 42 47 44 38 25 13 11 25 31 41 40 38 37 37 34 35 40 38 36 31 29 28 32
6 17 20 30 12 14 14 30 30 25 23 30 28 25 20 18 20 25 32 35 39 42 43 45 46 41 29 15 12 26 38 41 41 41 42 41 40 46 48 44 42 34 32 36
16 8 6 33 0 15 22 32 26 31 28 30 27 20 16 16 21 27 31 35 39 41 41 41 43 44 42 31 16 19 34 40 42 41 46 45 46 49 54 51 44 39 33 35
5 9 10 15 10 22 25 29 32 35 34 27 26 18 13 14 18 20 24 28 33 39 43 43 43 42 40 37 26 20 22 36 42 44 48 49 50 49 53 53 48 44 42 40
3 1 5 10 13 27 33 42 45 36 30 25 18 12 8 8 12 18 22 24 28 32 38 44 43 40 38 38 32 20 22 27 42 45 48 52 52 52 52 50 45 47 48 46
11 23 13 22 30 36 47 49 41 35 28 19 11 4 4 10 14 18 22 26 27 30 33 37 40 37 34 32 33 26 20 31 38 46 48 53 54 52 56 55 51 48 49 44
7 26 17 24 37 43 51 44 34 28 17 6 7 15 19 23 25 27 29 31 32 32 33 36 40 35 32 31 30 29 25 25 39 46 48 54 57 59 60 61 58 52 54 49
19 27 14 29 28 43 44 29 23 19 17 18 23 24 26 28 32 36 39 42 44 43 40 39 41 37 32 30 29 30 29 27 32 44 52 56 59 64 66 63 63 68 62 55
27 16 11 26 17 34 27 25 21 20 24 26 24 24 28 37 44 50 55 58 61 59 54 51 46 43 33 33 32 30 31 32 34 40 49 54 60 65 72 68 67 67 69 65
31 27 21 18 20 21 20 20 22 24 25 26 32 40 49 56 60 62 61 60 62 66 64 62 59 49 41 39 35 34 35 33 35 39 46 54 61 69 73 77 69 69 68 66
19 26 29 29 28 22 20 20 22 26 32 42 50 56 57 57 56 56 54 54 58 62 63 63 67 63 52 48 46 40 39 37 36 41 45 53 59 68 75 80 82 70 70 73
28 30 28 28 27 27 27 32 36 42 47 50 53 55 60 61 61 61 59 60 61 61 60 57 60 65 66 60 55 52 47 45 43 44 48 54 59 63 71 82 87 78 67 73
24 23 24 25 29 35 40 45 47 47 49 53 56 58 62 63 64 65 68 70 71 71 61 63 61 58 59 61 58 56 54 55 50 50 52 55 59 61 68 76 83 88 77 72
24 26 29 31 34 37 38 39 42 45 47 51 55 58 62 62 63 65 68 74 73 74 73 71 72 72 64 60 62 65 63 61 61 56 58 60 61 65 67 71 76 82 83 75
18 18 21 24 26 28 30 32 35 37 39 42 47 52 57 61 62 63 69 76 71 71 70 70 73 75 72 65 62 64 69 70 68 67 65 64 62 64 68 72 75 82 89 84
13 14 16 20 23 21 23 26 30 32 33 36 38 42 49 55 60 64 65 71 72 68 64 62 62 62 61 60 62 66 67 69 72 70 72 71 71 69 68 74 79 83 90 93
15 17 19 24 25 25 22 25 26 30 33 37 40 41 45 52 57 65 73 64 63 63 65 67 69 66 59 58 60 62 66 71 73 75 76 76 77 75 76 73 76 84 89 93
16 18 20 23 25 24 22 22 26 29 34 35 36 39 46 55 61 58 61 65 67 67 69 70 67 67 69 76 76 76 67 69 76 79 79 79 79 81 79 85 81 77 87 92
14 16 16 18 19 19 22 24 25 28 34 37 36 36 38 43 57 63 63 64 64 66 69 66 64 62 64 68 73 78 74 76 73 79 82 82 82 81 85 83 85 83 82 91
11 10 11 14 15 16 19 22 25 30 37 44 42 44 45 47 52 57 61 64 62 61 65 66 60 57 59 61 63 66 69 70 71 78 77 79 80 82 83 85 84 84 83 85
9 9 10 13 17 18 19 23 30 33 36 43 52 50 53 55 55 57 58 60 60 60 61 61 59 56 56 58 60 63 67 70 71 73 78 82 78 79 80 82 83 80 81 84
Wind_Direction_500mb
66 67 128 193 172 193 203 211 210 199 220 235 267 320 147 21 14 10 351 337 321 298 280 258 245 241 241 241 236 244 252 248 246 229 219 228 241 247 239 230 216 204 203 166
125 46 28 308 181 192 208 236 273 285 271 261 287 307 350 20 13 5 348 331 322 308 291 276 261 248 243 240 238 236 245 246 237 230 224 226 237 229 234 219 208 192 177 163
191 100 209 271 196 188 189 206 201 226 246 232 273 292 330 6 8 2 358 351 342 322 304 296 271 249 243 238 236 233 234 241 238 223 223 228 226 222 230 207 182 166 163 167
118 167 226 71 108 204 208 216 219 245 217 274 283 189 98 46 30 13 8 10 12 3 333 314 296 255 239 234 234 230 230 230 242 221 217 221 207 213 193 189 173 161 163 168
204 216 304 186 191 179 178 228 215 227 236 222 151 136 83 54 47 31 20 16 14 16 5 341 329 275 249 241 233 230 228 227 235 225 216 212 202 199 188 178 171 173 170 169
172 214 215 189 143 152 151 246 166 164 154 146 156 157 109 64 61 49 34 25 20 18 19 3 351 332 268 255 244 237 230 231 225 230 216 210 203 199 195 187 186 184 184 180
189 219 262 150 132 147 185 146 150 153 134 161 150 82 119 86 63 47 31 24 20 18 15 11 12 354 328 272 254 243 237 234 229 223 216 211 204 201 202 200 200 204 199 190
182 209 233 151 139 196 119 126 138 135 126 117 117 118 104 77 54 41 34 26 18 17 14 10 6 4 353 320 261 239 232 229 231 224 213 212 209 208 206 211 212 214 209 204
203 208 81 178 278 163 146 145 144 140 136 133 125 114 102 71 45 30 18 15 14 13 10 9 6 0 1 349 292 233 230 225 226 226 221 213 214 215 216 213 217 213 218 221
122 185 181 183 166 168 158 154 146 147 141 136 126 118 97 57 36 23 15 6 358 355 360 2 2 357 354 351 337 261 235 228 227 228 223 218 218 218 227 223 220 214 220 225
232 204 128 197 179 167 156 156 148 143 141 135 129 107 79 35 7 356 353 352 350 345 341 346 350 350 345 345 345 311 226 230 234 229 227 224 224 222 228 228 229 233 226 223
207 172 196 189 182 178 169 163 162 161 149 137 125 98 346 326 328 326 326 324 323 323 326 327 334 339 339 334 334 329 279 222 227 239 231 227 226 228 224 223 228 230 224 223
193 177 168 163 180 181 176 176 175 171 171 201 303 318 308 302 301 300 303 309 308 310 314 313 316 327 320 324 324 320 314 262 240 226 231 234 230 236 234 231 230 223 221 216
173 163 145 173 187 190 197 187 193 216 232 250 286 293 287 285 285 289 292 294 296 298 298 304 303 313 311 306 309 312 305 292 254 241 234 230 230 236 245 239 235 223 222 215
175 180 172 191 160 180 183 194 226 235 241 265 273 278 284 291 294 293 292 292 292 290 287 286 288 293 301 301 296 294 298 290 277 257 238 235 234 235 248 249 244 235 227 217
204 215 216 195 194 215 238 245 245 249 259 268 281 289 295 295 293 292 290 290 289 287 284 280 276 279 286 287 290 285 285 289 281 266 253 239 234 235 235 251 248 243 232 222
203 222 230 236 251 259 251 255 266 277 289 294 297 301 300 295 293 292 290 286 283 282 282 280 276 274 278 277 280 283 277 277 281 273 259 248 244 239 237 240 252 249 244 231
222 230 232 235 238 250 270 285 290 294 296 297 294 290 290 290 290 287 287 288 286 282 280 283 280 276 274 275 276 274 277 274 269 274 266 255 252 249 242 238 243 252 247 239
219 227 237 249 262 273 282 283 284 286 287 287 286 286 287 289 288 286 286 285 285 285 284 286 283 278 274 272 271 269 267 271 267 266 273 263 256 254 249 245 240 244 250 243
239 246 250 255 259 263 267 272 277 279 281 284 287 289 290 290 290 289 287 284 282 283 281 279 279 278 276 272 270 265 263 263 266 260 262 268 263 254 254 249 245 249 248 248
218 227 237 247 254 264 272 276 278 281 286 292 295 296 296 295 296 295 291 288 284 290 286 278 276 277 276 272 269 268 262 260 259 262 257 256 264 261 252 252 246 243 248 247
232 247 262 272 274 271 279 287 293 298 305 308 308 308 306 305 302 299 297 296 294 294 290 282 276 274 275 270 266 264 262 258 257 258 256 253 254 259 260 250 249 244 244 246
264 267 268 269 275 279 282 289 293 299 303 307 311 314 315 317 314 308 306 306 300 293 286 279 272 267 264 261 260 257 258 256 254 255 255 254 250 254 256 260 252 248 247 244
279 278 277 278 280 282 286 283 288 297 303 309 314 318 320 320 316 317 309 307 306 302 293 287 281 272 268 265 259 255 251 252 253 251 252 253 253 250 254 256 257 252 249 248
289 286 282 281 282 284 289 292 303 312 314 315 317 320 322 320 315 320 315 312 307 302 298 291 284 277 271 267 266 261 257 252 252 251 251 251 252 251 250 255 257 256 253 248
290 292 298 297 293 294 301 311 323 329 324 321 325 328 326 324 320 320 317 313 310 306 301 296 288 279 273 269 265 263 261 256 252 250 250 249 249 251 249 252 257 257 255 253
299 314 318 305 294 301 314 326 325 326 326 327 325 330 328 327 324 321 319 317 314 310 305 297 290 281 275 270 264 259 257 256 256 251 251 250 249 246 250 249 254 257 256 253
Wind_Speed_850mb
5 7 4 7 8 20 22 27 18 9 19 16 10 13 11 13 15 16 17 17 16 16 15 23 35 42 42 41 35 32 32 27 25 28 28 26 22 16 13 14 18 21 20 20
3 3 6 2 6 13 10 8 13 10 15 23 37 19 22 23 21 19 22 23 20 17 16 17 23 33 42 42 38 36 34 30 26 30 29 26 22 17 15 17 17 22 23 28
7 4 1 12 18 20 12 12 16 21 25 14 13 6 13 12 13 17 23 27 23 19 17 18 22 26 37 41 41 40 37 33 29 30 30 26 22 18 20 19 21 26 31 24
6 5 14 3 7 14 25 14 26 16 8 14 16 2 13 12 13 18 26 34 35 27 19 19 19 24 29 40 43 43 41 35 33 31 31 25 20 19 21 23 29 32 27 23
7 15 13 9 9 12 14 6 25 25 18 9 13 30 18 15 16 20 28 34 37 40 32 26 17 12 24 34 41 46 44 39 32 34 33 29 24 26 26 26 31 28 26 23
8 12 16 6 11 9 8 9 20 21 12 24 36 13 9 11 20 24 29 35 40 40 40 31 24 12 11 21 35 46 46 40 33 34 35 32 28 34 32 30 30 28 28 26
15 12 7 10 17 19 13 3 33 25 19 32 9 15 16 15 21 25 30 34 38 42 47 44 38 25 13 11 25 31 41 40 38 37 37 34 35 40 38 36 31 29 28 32
6 17 20 30 12 14 14 30 30 25 23 30 28 25 20 18 20 25 32 35 39 42 43 45 46 41 29 15 12 26 38 41 41 41 42 41 40 46 48 44 42 34 32 36
16 8 6 33 0 15 22 32 26 31 28 30 27 20 16 16 21 27 31 35 39 41 41 41 43 44 42 31 16 19 34 40 42 41 46 45 46 49 54 51 44 39 33 35
5 9 10 15 10 22 25 29 32 35 34 27 26 18 13 14 18 20 24 28 33 39 43 43 43 42 40 37 26 20 22 36 42 44 48 49 50 49 53 53 48 44 42 40
3 1 5 10 13 27 33 42 45 36 30 25 18 12 8 8 12 18 22 24 28 32 38 44 43 40 38 38 32 20 22 27 42 45 48 52 52 52 52 50 45 47 48 46
11 23 13 22 30 36 47 49 41 35 28 19 11 4 4 10 14 18 22 26 27 30 33 37 40 37 34 32 33 26 20 31 38 46 48 53 54 52 56 55 51 48 49 44
7 26 17 24 37 43 51 44 34 28 17 6 7 15 19 23 25 27 29 31 32 32 33 36 40 35 32 31 30 29 25 25 39 46 48 54 57 59 60 61 58 52 54 49
19 27 14 29 28 43 44 29 23 19 17 18 23 24 26 28 32 36 39 42 44 43 40 39 41 37 32 30 29 30 29 27 32 44 52 56 59 64 66 63 63 68 62 55
27 16 11 26 17 34 27 25 21 20 24 26 24 24 28 37 44 50 55 58 61 59 54 51 46 43 33 33 32 30 31 32 34 40 49 54 60 65 72 68 67 67 69 65
31 27 21 18 20 21 20 20 22 24 25 26 32 40 49 56 60 62 61 60 62 66 64 62 59 49 41 39 35 34 35 33 35 39 46 54 61 69 73 77 69 69 68 66
19 26 29 29 28 22 20 20 22 26 32 42 50 56 57 57 56 56 54 54 58 62 63 63 67 63 52 48 46 40 39 37 36 41 45 53 59 68 75 80 82 70 70 73
28 30 28 28 27 27 27 32 36 42 47 50 53 55 60 61 61 61 59 60 61 61 60 57 60 65 66 60 55 52 47 45 43 44 48 54 59 63 71 82 87 78 67 73
24 23 24 25 29 35 40 45 47 47 49 53 56 58 62 63 64 65 68 70 71 71 61 63 61 58 59 61 58 56 54 55 50 50 52 55 59 61 68 76 83 88 77 72
24 26 29 31 34 37 38 39 42 45 47 51 55 58 62 62 63 65 68 74 73 74 73 71 72 72 64 60 62 65 63 61 61 56 58 60 61 65 67 71 76 82 83 75
18 18 21 24 26 28 30 32 35 37 39 42 47 52 57 61 62 63 69 76 71 71 70 70 73 75 72 65 62 64 69 70 68 67 65 64 62 64 68 72 75 82 89 84
13 14 16 20 23 21 23 26 30 32 33 36 38 42 49 55 60 64 65 71 72 68 64 62 62 62 61 60 62 66 67 69 72 70 72 71 71 69 68 74 79 83 90 93
15 17 19 24 25 25 22 25 26 30 33 37 40 41 45 52 57 65 73 64 63 63 65 67 69 66 59 58 60 62 66 71 73 75 76 76 77 75 76 73 76 84 89 93
16 18 20 23 25 24 22 22 26 29 34 35 36 39 46 55 61 58 61 65 67 67 69 70 67 67 69 76 76 76 67 69 76 79 79 79 79 81 79 85 81 77 87 92
14 16 16 18 19 19 22 24 25 28 34 37 36 36 38 43 57 63 63 64 64 66 69 66 64 62 64 68 73 78 74 76 73 79 82 82 82 81 85 83 85 83 82 91
11 10 11 14 15 16 19 22 25 30 37 44 42 44 45 47 52 57 61 64 62 61 65 66 60 57 59 61 63 66 69 70 71 78 77 79 80 82 83 85 84 84 83 85
9 9 10 13 17 18 19 23 30 33 36 43 52 50 53 55 55 57 58 60 60 60 61 61 59 56 56 58 60 63 67 70 71 73 78 82 78 79 80 82 83 80 81 84
Wind_Direction_850mb
66 67 128 193 172 193 203 211 210 199 220 235 267 320 147 21 14 10 351 337 321 298 280 258 245 241 241 241 236 244 252 248 246 229 219 228 241 247 239 230 216 204 203 166
125 46 28 308 181 192 208 236 273 285 271 261 287 307 350 20 13 5 348 331 322 308 291 276 261 248 243 240 238 236 245 246 237 230 224 226 237 229 234 219 208 192 177 163
191 100 209 271 196 188 189 206 201 226 246 232 273 292 330 6 8 2 358 351 342 322 304 296 271 249 243 238 236 233 234 241 238 223 223 228 226 222 230 207 182 166 163 167
118 167 226 71 108 204 208 216 219 245 217 274 283 189 98 46 30 13 8 10 12 3 333 314 296 255 239 234 234 230 230 230 242 221 217 221 207 213 193 189 173 161 163 168
204 216 304 186 191 179 178 228 215 227 236 222 151 136 83 54 47 31 20 16 14 16 5 341 329 275 249 241 233 230 228 227 235 225 216 212 202 199 188 178 171 173 170 169
172 214 215 189 143 152 151 246 166 164 154 146 156 157 109 64 61 49 34 25 20 18 19 3 351 332 268 255 244 237 230 231 225 230 216 210 203 199 195 187 186 184 184 180
189 219 262 150 132 147 185 146 150 153 134 161 150 82 119 86 63 47 31 24 20 18 15 11 12 354 328 272 254 243 237 234 229 223 216 211 204 201 202 200 200 204 199 190
182 209 233 151 139 196 119 126 138 135 126 117 117 118 104 77 54 41 34 26 18 17 14 10 6 4 353 320 261 239 232 229 231 224 213 212 209 208 206 211 212 214 209 204
203 208 81 178 278 163 146 145 144 140 136 133 125 114 102 71 45 30 18 15 14 13 10 9 6 0 1 349 292 233 230 225 226 226 221 213 214 215 216 213 217 213 218 221
122 185 181 183 166 168 158 154 146 147 141 136 126 118 97 57 36 23 15 6 358 355 360 2 2 357 354 351 337 261 235 228 227 228 223 218 218 218 227 223 220 214 220 225
232 204 128 197 179 167 156 156 148 143 141 135 129 107 79 35 7 356 353 352 350 345 341 346 350 350 345 345 345 311 226 230 234 229 227 224 224 222 228 228 229 233 226 223
207 172 196 189 182 178 169 163 162 161 149 137 125 98 346 326 328 326 326 324 323 323 326 327 334 339 339 334 334 329 279 222 227 239 231 227 226 228 224 223 228 230 224 223
193 177 168 163 180 181 176 176 175 171 171 201 303 318 308 302 301 300 303 309 308 310 314 313 316 327 320 324 324 320 314 262 240 226 231 234 230 236 234 231 230 223 221 216
173 163 145 173 187 190 197 187 193 216 232 250 286 293 287 285 285 289 292 294 296 298 298 304 303 313 311 306 309 312 305 292 254 241 234 230 230 236 245 239 235 223 222 215
175 180 172 191 160 180 183 194 226 235 241 265 273 278 284 291 294 293 292 292 292 290 287 286 288 293 301 301 296 294 298 290 277 257 238 235 234 235 248 249 244 235 227 217
204 215 216 195 194 215 238 245 245 249 259 268 281 289 295 295 293 292 290 290 289 287 284 280 276 279 286 287 290 285 285 289 281 266 253 239 234 235 235 251 248 243 232 222
203 222 230 236 251 259 251 255 266 277 289 294 297 301 300 295 293 292 290 286 283 282 282 280 276 274 278 277 280 283 277 277 281 273 259 248 244 239 237 240 252 249 244 231
222 230 232 235 238 250 270 285 290 294 296 297 294 290 290 290 290 287 287 288 286 282 280 283 280 276 274 275 276 274 277 274 269 274 266 255 252 249 242 238 243 252 247 239
219 227 237 249 262 273 282 283 284 286 287 287 286 286 287 289 288 286 286 285 285 285 284 286 283 278 274 272 271 269 267 271 267 266 273 263 256 254 249 245 240 244 250 243
239 246 250 255 259 263 267 272 277 279 281 284 287 289 290 290 290 289 287 284 282 283 281 279 279 278 276 272 270 265 263 263 266 260 262 268 263 254 254 249 245 249 248 248
218 227 237 247 254 264 272 276 278 281 286 292 295 296 296 295 296 295 291 288 284 290 286 278 276 277 276 272 269 268 262 260 259 262 257 256 264 261 252 252 246 243 248 247
232 247 262 272 274 271 279 287 293 298 305 308 308 308 306 305 302 299 297 296 294 294 290 282 276 274 275 270 266 264 262 258 257 258 256 253 254 259 260 250 249 244 244 246
264 267 268 269 275 279 282 289 293 299 303 307 311 314 315 317 314 308 306 306 300 293 286 279 272 267 264 261 260 257 258 256 254 255 255 254 250 254 256 260 252 248 247 244
279 278 277 278 280 282 286 283 288 297 303 309 314 318 320 320 316 317 309 307 306 302 293 287 281 272 268 265 259 255 251 252 253 251 252 253 253 250 254 256 257 252 249 248
289 286 282 281 282 284 289 292 303 312 314 315 317 320 322 320 315 320 315 312 307 302 298 291 284 277 271 267 266 261 257 252 252 251 251 251 252 251 250 255 257 256 253 248
290 292 298 297 293 294 301 311 323 329 324 321 325 328 326 324 320 320 317 313 310 306 301 296 288 279 273 269 265 263 261 256 252 250 250 249 249 251 249 252 257 257 255 253
299 314 318 305 294 301 314 326 325 326 326 327 325 330 328 327 324 321 319 317 314 310 305 297 290 281 275 270 264 259 257 256 256 251 251 250 249 246 250 249 254 257 256 253